[Iaude] MPEC K125: 2009 PN = 2016 GM128
    mpec at cfa.harvard.edu 
    mpec at cfa.harvard.edu
       
    Wed May 29 13:20:35 EDT 2024
    
    
  
M.P.E.C. 2024-K125                                 Issued 2024 May 29, 17:17 UT
     The Minor Planet Electronic Circulars contain information on unusual
         minor planets, routine data on comets and natural satellites,
         and occasional editorial announcements.  They are published
    on behalf of Division F of the International Astronomical Union by the
          Minor Planet Center, Smithsonian Astrophysical Observatory,
                          Cambridge, MA 02138, U.S.A.
			  
             Prepared using the Tamkin Foundation Computer Network
                              MPC at CFA.HARVARD.EDU
            URL https://www.minorplanetcenter.net/    ISSN 1523-6714
                              2009 PN = 2016 GM128                              
                           Revision to MPEC 2009-P45
Orbital elements:
2009 PN = 2016 GM128                                     Earth MOID = 0.3029 AU
Id. P. VanWylen
Epoch 2024 Mar. 31.0 TT = JDT 2460400.5                 Veres                   
M  67.06494              (2000.0)            P               Q                  
n   0.27847913     Peri.  262.60328     -0.14841262     +0.98892336             
a   2.3224210      Node   358.85560     -0.86151925     -0.13031970             
e   0.4426191      Incl.    5.94955     -0.48554946     -0.07104482             
P   3.54           H   20.33          G   0.15           U   2                  
Residuals in seconds of arc
090810 I08  0.5-  0.5+    090814 I08  1.0-  1.1+    160402 G96  0.0   0.1+
090810 I08  1.0-  0.2-    090814 I08  0.8-  0.5+    160402 G96  0.2+  0.2+
090810 I08  0.1-  0.2+    090814 I08  0.1-  0.5+    160402 G96  0.2+  0.1+
090810 I08  0.5+  0.8+    090814 I08  0.9-  0.4+    160403 F51  0.0   0.0
090811 I08  0.2-  0.7+    090817 I08  0.5+  0.1-    160403 F51  0.1+  0.0
090811 I08  0.3+  0.2-    090817 I08  0.1+  1.5-    160403 F51  0.0   0.0
090811 I08  0.3+  0.3-    090817 I08  0.7+  1.6-    160403 F51  0.0   0.0
090811 I08  0.2+  0.3+    090817 I08 (1.5+  1.7-)   160503 G96  0.4-  0.1+
090812 I08  0.7-  0.6-    160304 F51  0.3-  0.1+    160503 G96  0.3+  0.0
090812 I08  1.0+  1.1+    160304 F51  0.2-  0.4-    160503 G96  0.0   0.0
090812 I08 (2.2+  2.0+)   160304 F51  0.2-  0.1-    160503 G96  0.1-  0.0
090814 I08  1.6-  0.4+    160402 G96  0.4+  0.2-
Ephemeris:
2009 PN                  a,e,i = 2.32, 0.44, 6                   q = 1.2945
Date    TT    R. A. (2000) Decl.     Delta      r    Elong.  Phase     V
2024 04 29    01 48 27.0 +13 17 07   3.4918  2.5027     9.1     3.7    25.4
...
2024 05 14    02 12 17.5 +15 39 48   3.5168  2.5698    17.4     6.7    25.6
...
2024 05 22    02 24 40.7 +16 50 15   3.5167  2.6045    21.8     8.3    25.7
...
2024 05 28    02 33 48.4 +17 40 29   3.5106  2.6300    25.3     9.5    25.8
2024 05 29    02 35 18.9 +17 48 38   3.5091  2.6342    25.8     9.7    25.8
2024 05 30    02 36 49.1 +17 56 44   3.5075  2.6384    26.4     9.8    25.8
...
2024 06 05    02 45 44.7 +18 44 01   3.4945  2.6633    29.9    10.9    25.9
...
2024 06 13    02 57 22.9 +19 43 38   3.4690  2.6958    34.6    12.4    25.9
...
2024 06 28    03 18 14.0 +21 25 02   3.3975  2.7545    43.8    14.8    26.0
M. P. C. Staff               (C) Copyright 2024 MPC           M.P.E.C. 2024-K125
    
    
More information about the Iaude
mailing list